sat.trackr.live / text

‹ back to catalog

SJ-11-08

NORAD 40286 · 2014-066A

PAYLOAD ACTIVE UNKNOWN

§ Identity

Operator
Country
PRC
Launch date
2014-10-27
Launch site
JSC
Launch vehicle
Mass (kg)
RCS (m²)
2.16

External: N2YO · Heavens-Above · Gunter

§ Orbital elements

Epoch: 2026-05-25T04:30:01.288224Z

Period
98.22 min
Inclination
98.3490°
Eccentricity
0.0011050
Mean motion
14.66140106 rev/d
Perigee alt
665.6 km
Apogee alt
681.2 km
Semi-major
7,051.6 km
B*
1.0320e-4
RAAN
289.6515°
Arg perigee
308.1120°
Mean anomaly
51.9086°
Rev number
61,784

§ Raw data

SJ-11-081 40286U 14066A   26145.18751491  .00000517  00000+0  10320-3 0  99922 40286  98.3490 289.6515 0011050 308.1120  51.9086 14.66140106617847

JSON: /api/v1/satellites/40286 · /tle

For live sub-satellite position, see the globe view (requires WebGL).

§ Visibility from observer

Set your observer location to see the next 7 days of passes ≥ 10°. The values pass through the URL so the page stays shareable.

No JS? Fill the form by hand. The geolocation button needs JavaScript.